contact:dominique.lefevre@mio.osupytheas.fr, maurice.libes@osupytheas.fr, didier.mallarino@osupytheas.fr
Project:EMSO http://www.emso-fr.org/EMSO-France
Depth: 2436.0 m
Title:EMSO Ligure Ouest : Data MII capteur MICROCAT
DateTime_Computer,Latitude,Longitude,Temperature,Conductivity,Pressure,DateTime_Instrument
DateTime_Computer,Latitude,Longitude,degC,S m-1,dbar,DateTime_Instrument
2023-04-21T00:01:31Z,42.805,6.029,13.3041,4.60109,2470.624,2023-4-21T02:04:31Z
2023-04-21T00:04:34Z,42.805,6.029,13.3029,4.60097,2470.637,2023-4-21T02:07:34Z
2023-04-21T00:07:37Z,42.805,6.029,13.3048,4.60123,2470.646,2023-4-21T02:10:37Z
2023-04-21T00:10:40Z,42.805,6.029,13.3044,4.60120,2470.624,2023-4-21T02:13:40Z
2023-04-21T00:13:43Z,42.805,6.029,13.3038,4.60125,2470.661,2023-4-21T02:16:43Z
2023-04-21T00:16:46Z,42.805,6.029,13.3035,4.60101,2470.614,2023-4-21T02:19:46Z
2023-04-21T00:19:49Z,42.805,6.029,13.3034,4.60091,2470.624,2023-4-21T02:22:49Z
2023-04-21T00:22:52Z,42.805,6.029,13.3026,4.60096,2470.624,2023-4-21T02:25:52Z
2023-04-21T00:25:55Z,42.805,6.029,13.3037,4.60106,2470.624,2023-4-21T02:28:55Z
2023-04-21T00:28:58Z,42.805,6.029,13.3041,4.60132,2470.637,2023-4-21T02:31:58Z
2023-04-21T00:32:02Z,42.805,6.029,13.3040,4.60119,2470.614,2023-4-21T02:35:01Z
2023-04-21T00:35:05Z,42.805,6.029,13.3031,4.60109,2470.6,2023-4-21T02:38:04Z
2023-04-21T00:38:08Z,42.805,6.029,13.3026,4.60108,2470.637,2023-4-21T02:41:08Z
2023-04-21T00:41:11Z,42.805,6.029,13.3034,4.60102,2470.646,2023-4-21T02:44:11Z
2023-04-21T00:44:14Z,42.805,6.029,13.3037,4.60103,2470.637,2023-4-21T02:47:14Z
2023-04-21T00:47:17Z,42.805,6.029,13.3034,4.60104,2470.637,2023-4-21T02:50:17Z
2023-04-21T00:50:20Z,42.805,6.029,13.3030,4.60111,2470.624,2023-4-21T02:53:20Z
2023-04-21T00:53:23Z,42.805,6.029,13.3037,4.60096,2470.624,2023-4-21T02:56:23Z
2023-04-21T00:56:26Z,42.805,6.029,13.3029,4.60107,2470.624,2023-4-21T02:59:26Z
2023-04-21T00:59:29Z,42.805,6.029,13.3026,4.60102,2470.6,2023-4-21T03:02:29Z
2023-04-21T01:02:32Z,42.805,6.029,13.3036,4.60103,2470.6,2023-4-21T03:05:32Z
2023-04-21T01:05:35Z,42.805,6.029,13.3035,4.60117,2470.614,2023-4-21T03:08:35Z
2023-04-21T01:08:38Z,42.805,6.029,13.3031,4.60117,2470.614,2023-4-21T03:11:38Z
2023-04-21T01:11:42Z,42.805,6.029,13.3035,4.60126,2470.6,2023-4-21T03:14:41Z
2023-04-21T01:14:45Z,42.805,6.029,13.3048,4.60102,2470.577,2023-4-21T03:17:45Z
2023-04-21T01:17:48Z,42.805,6.029,13.3044,4.60119,2470.577,2023-4-21T03:20:48Z
2023-04-21T01:20:51Z,42.805,6.029,13.3051,4.60132,2470.6,2023-4-21T03:23:51Z
2023-04-21T01:23:54Z,42.805,6.029,13.3037,4.60132,2470.577,2023-4-21T03:26:54Z
2023-04-21T01:26:57Z,42.805,6.029,13.3049,4.60141,2470.563,2023-4-21T03:29:57Z
2023-04-21T01:30:00Z,42.805,6.029,13.3049,4.60125,2470.591,2023-4-21T03:33:00Z
2023-04-21T01:33:03Z,42.805,6.029,13.3049,4.60104,2470.614,2023-4-21T03:36:03Z
2023-04-21T01:36:06Z,42.805,6.029,13.3042,4.60150,2470.577,2023-4-21T03:39:06Z
2023-04-21T01:39:09Z,42.805,6.029,13.3058,4.60121,2470.567,2023-4-21T03:42:09Z
2023-04-21T01:42:12Z,42.805,6.029,13.3039,4.60139,2470.6,2023-4-21T03:45:12Z
2023-04-21T01:45:15Z,42.805,6.029,13.3040,4.60127,2470.591,2023-4-21T03:48:15Z
2023-04-21T01:48:18Z,42.805,6.029,13.3034,4.60120,2470.591,2023-4-21T03:51:18Z
2023-04-21T01:51:22Z,42.805,6.029,13.3031,4.60140,2470.591,2023-4-21T03:54:21Z
2023-04-21T01:54:25Z,42.805,6.029,13.3038,4.60132,2470.577,2023-4-21T03:57:25Z
2023-04-21T01:57:28Z,42.805,6.029,13.3034,4.60104,2470.577,2023-4-21T04:00:28Z
2023-04-21T02:00:31Z,42.805,6.029,13.3029,4.60121,2470.6,2023-4-21T04:03:31Z
2023-04-21T02:03:34Z,42.805,6.029,13.3029,4.60111,2470.591,2023-4-21T04:06:34Z
2023-04-21T02:06:37Z,42.805,6.029,13.3027,4.60089,2470.591,2023-4-21T04:09:37Z
2023-04-21T02:09:40Z,42.805,6.029,13.3033,4.60104,2470.591,2023-4-21T04:12:40Z
2023-04-21T02:12:43Z,42.805,6.029,13.3034,4.60117,2470.553,2023-4-21T04:15:43Z
2023-04-21T02:15:46Z,42.805,6.029,13.3024,4.60119,2470.544,2023-4-21T04:18:46Z
2023-04-21T02:18:49Z,42.805,6.029,13.3027,4.60109,2470.614,2023-4-21T04:21:49Z
2023-04-21T02:21:52Z,42.805,6.029,13.3028,4.60103,2470.591,2023-4-21T04:24:52Z
2023-04-21T02:24:55Z,42.805,6.029,13.3029,4.60132,2470.591,2023-4-21T04:27:55Z
2023-04-21T02:27:59Z,42.805,6.029,13.3033,4.60111,2470.6,2023-4-21T04:30:58Z
2023-04-21T02:31:02Z,42.805,6.029,13.3036,4.60132,2470.577,2023-4-21T04:34:01Z
2023-04-21T02:34:05Z,42.805,6.029,13.3047,4.60145,2470.577,2023-4-21T04:37:05Z
2023-04-21T02:37:08Z,42.805,6.029,13.3034,4.60114,2470.591,2023-4-21T04:40:08Z
2023-04-21T02:40:11Z,42.805,6.029,13.3029,4.60110,2470.6,2023-4-21T04:43:11Z
2023-04-21T02:43:14Z,42.805,6.029,13.3027,4.60127,2470.6,2023-4-21T04:46:14Z
2023-04-21T02:46:17Z,42.805,6.029,13.3034,4.60119,2470.567,2023-4-21T04:49:17Z
2023-04-21T02:49:20Z,42.805,6.029,13.3044,4.60132,2470.567,2023-4-21T04:52:20Z
2023-04-21T02:52:23Z,42.805,6.029,13.3035,4.60128,2470.553,2023-4-21T04:55:23Z
2023-04-21T02:55:26Z,42.805,6.029,13.3034,4.60128,2470.577,2023-4-21T04:58:26Z
2023-04-21T02:58:29Z,42.805,6.029,13.3029,4.60116,2470.577,2023-4-21T05:01:29Z
2023-04-21T03:01:32Z,42.805,6.029,13.3041,4.60141,2470.553,2023-4-21T05:04:32Z
2023-04-21T03:04:35Z,42.805,6.029,13.3041,4.60123,2470.553,2023-4-21T05:07:35Z
2023-04-21T03:07:39Z,42.805,6.029,13.3032,4.60119,2470.614,2023-4-21T05:10:38Z
2023-04-21T03:10:42Z,42.805,6.029,13.3036,4.60122,2470.53,2023-4-21T05:13:42Z
2023-04-21T03:13:45Z,42.805,6.029,13.3029,4.60110,2470.577,2023-4-21T05:16:45Z
2023-04-21T03:16:48Z,42.805,6.029,13.3033,4.60099,2470.6,2023-4-21T05:19:48Z
2023-04-21T03:19:51Z,42.805,6.029,13.3026,4.60119,2470.567,2023-4-21T05:22:51Z
2023-04-21T03:22:54Z,42.805,6.029,13.3033,4.60119,2470.577,2023-4-21T05:25:54Z
2023-04-21T03:25:57Z,42.805,6.029,13.3044,4.60116,2470.591,2023-4-21T05:28:57Z
2023-04-21T03:29:00Z,42.805,6.029,13.3043,4.60127,2470.553,2023-4-21T05:32:00Z
2023-04-21T03:32:03Z,42.805,6.029,13.3041,4.60109,2470.577,2023-4-21T05:35:03Z
2023-04-21T03:35:06Z,42.805,6.029,13.3036,4.60116,2470.637,2023-4-21T05:38:06Z
2023-04-21T03:38:09Z,42.805,6.029,13.3041,4.60130,2470.6,2023-4-21T05:41:09Z
2023-04-21T03:41:12Z,42.805,6.029,13.3041,4.60117,2470.614,2023-4-21T05:44:12Z
2023-04-21T03:44:15Z,42.805,6.029,13.3029,4.60096,2470.6,2023-4-21T05:47:15Z
2023-04-21T03:47:19Z,42.805,6.029,13.3033,4.60113,2470.591,2023-4-21T05:50:18Z
2023-04-21T03:50:22Z,42.805,6.029,13.3034,4.60104,2470.591,2023-4-21T05:53:22Z
2023-04-21T03:53:25Z,42.805,6.029,13.3026,4.60104,2470.586,2023-4-21T05:56:25Z
2023-04-21T03:56:28Z,42.805,6.029,13.3027,4.60137,2470.614,2023-4-21T05:59:28Z
2023-04-21T03:59:31Z,42.805,6.029,13.3031,4.60132,2470.6,2023-4-21T06:02:31Z
2023-04-21T04:02:34Z,42.805,6.029,13.3033,4.60112,2470.614,2023-4-21T06:05:34Z
2023-04-21T04:05:37Z,42.805,6.029,13.3053,4.60151,2470.624,2023-4-21T06:08:37Z
2023-04-21T04:08:40Z,42.805,6.029,13.3037,4.60143,2470.577,2023-4-21T06:11:40Z
2023-04-21T04:11:43Z,42.805,6.029,13.3030,4.60129,2470.614,2023-4-21T06:14:43Z
2023-04-21T04:14:46Z,42.805,6.029,13.3031,4.60140,2470.6,2023-4-21T06:17:46Z
2023-04-21T04:17:49Z,42.805,6.029,13.3032,4.60124,2470.6,2023-4-21T06:20:49Z
2023-04-21T04:20:52Z,42.805,6.029,13.3036,4.60120,2470.637,2023-4-21T06:23:52Z
2023-04-21T04:23:55Z,42.805,6.029,13.3027,4.60114,2470.646,2023-4-21T06:26:55Z
2023-04-21T04:26:59Z,42.805,6.029,13.3029,4.60111,2470.661,2023-4-21T06:29:59Z
2023-04-21T04:30:02Z,42.805,6.029,13.3036,4.60121,2470.646,2023-4-21T06:33:02Z
2023-04-21T04:33:03Z,42.805,6.029,13.3046,4.60155,2470.661,2023-4-21T06:36:03Z
2023-04-21T04:36:06Z,42.805,6.029,13.3059,4.60119,2470.661,2023-4-21T06:39:06Z
2023-04-21T04:39:09Z,42.805,6.029,13.3031,4.60133,2470.67,2023-4-21T06:42:09Z
2023-04-21T04:42:12Z,42.805,6.029,13.3041,4.60093,2470.661,2023-4-21T06:45:12Z
2023-04-21T04:45:15Z,42.805,6.029,13.3029,4.60109,2470.661,2023-4-21T06:48:15Z
2023-04-21T04:48:18Z,42.805,6.029,13.3040,4.60135,2470.646,2023-4-21T06:51:18Z
2023-04-21T04:51:21Z,42.805,6.029,13.3038,4.60110,2470.684,2023-4-21T06:54:21Z
2023-04-21T04:54:24Z,42.805,6.029,13.3031,4.60110,2470.693,2023-4-21T06:57:24Z
2023-04-21T04:57:27Z,42.805,6.029,13.3033,4.60107,2470.67,2023-4-21T07:00:27Z
2023-04-21T05:00:31Z,42.805,6.029,13.3034,4.60107,2470.684,2023-4-21T07:03:30Z
2023-04-21T05:03:34Z,42.805,6.029,13.3030,4.60110,2470.67,2023-4-21T07:06:34Z
2023-04-21T05:06:37Z,42.805,6.029,13.3026,4.60100,2470.707,2023-4-21T07:09:37Z
2023-04-21T05:09:40Z,42.805,6.029,13.3028,4.60098,2470.67,2023-4-21T07:12:40Z
2023-04-21T05:12:43Z,42.805,6.029,13.3036,4.60115,2470.693,2023-4-21T07:15:43Z
2023-04-21T05:15:46Z,42.805,6.029,13.3031,4.60122,2470.707,2023-4-21T07:18:46Z
2023-04-21T05:18:49Z,42.805,6.029,13.3030,4.60095,2470.717,2023-4-21T07:21:49Z
2023-04-21T05:21:52Z,42.805,6.029,13.3038,4.60105,2470.717,2023-4-21T07:24:52Z
2023-04-21T05:24:55Z,42.805,6.029,13.3036,4.60125,2470.707,2023-4-21T07:27:55Z
2023-04-21T05:27:58Z,42.805,6.029,13.3036,4.60121,2470.707,2023-4-21T07:30:58Z
2023-04-21T05:31:01Z,42.805,6.029,13.3026,4.60125,2470.707,2023-4-21T07:34:01Z
2023-04-21T05:34:04Z,42.805,6.029,13.3026,4.60104,2470.707,2023-4-21T07:37:04Z
2023-04-21T05:37:07Z,42.805,6.029,13.3030,4.60108,2470.717,2023-4-21T07:40:07Z
2023-04-21T05:40:11Z,42.805,6.029,13.3026,4.60112,2470.703,2023-4-21T07:43:11Z
2023-04-21T05:43:14Z,42.805,6.029,13.3030,4.60105,2470.717,2023-4-21T07:46:14Z
2023-04-21T05:46:17Z,42.805,6.029,13.3036,4.60133,2470.73,2023-4-21T07:49:17Z
2023-04-21T05:49:20Z,42.805,6.029,13.3028,4.60103,2470.74,2023-4-21T07:52:20Z
2023-04-21T05:52:23Z,42.805,6.029,13.3041,4.60101,2470.754,2023-4-21T07:55:23Z
2023-04-21T05:55:26Z,42.805,6.029,13.3032,4.60114,2470.73,2023-4-21T07:58:26Z
2023-04-21T05:58:29Z,42.805,6.029,13.3034,4.60105,2470.754,2023-4-21T08:01:29Z
2023-04-21T06:01:32Z,42.805,6.029,13.3031,4.60104,2470.754,2023-4-21T08:04:32Z
2023-04-21T06:04:35Z,42.805,6.029,13.3026,4.60107,2470.763,2023-4-21T08:07:35Z
2023-04-21T06:07:38Z,42.805,6.029,13.3034,4.60127,2470.754,2023-4-21T08:10:38Z
2023-04-21T06:10:41Z,42.805,6.029,13.3044,4.60117,2470.74,2023-4-21T08:13:41Z
2023-04-21T06:13:44Z,42.805,6.029,13.3039,4.60123,2470.763,2023-4-21T08:16:44Z
2023-04-21T06:16:47Z,42.805,6.029,13.3051,4.60125,2470.754,2023-4-21T08:19:47Z
2023-04-21T06:19:51Z,42.805,6.029,13.3041,4.60121,2470.787,2023-4-21T08:22:51Z
2023-04-21T06:22:54Z,42.805,6.029,13.3031,4.60134,2470.777,2023-4-21T08:25:54Z
2023-04-21T06:25:57Z,42.805,6.029,13.3045,4.60117,2470.74,2023-4-21T08:28:57Z
2023-04-21T06:29:00Z,42.805,6.029,13.3042,4.60129,2470.763,2023-4-21T08:32:00Z
2023-04-21T06:32:01Z,42.805,6.029,13.3045,4.60143,2470.763,2023-4-21T08:35:01Z
2023-04-21T06:35:05Z,42.805,6.029,13.3030,4.60125,2470.763,2023-4-21T08:38:05Z
2023-04-21T06:38:08Z,42.805,6.029,13.3027,4.60142,2470.763,2023-4-21T08:41:08Z
2023-04-21T06:41:11Z,42.805,6.029,13.3041,4.60133,2470.754,2023-4-21T08:44:11Z
2023-04-21T06:44:14Z,42.805,6.029,13.3028,4.60119,2470.8,2023-4-21T08:47:14Z
2023-04-21T06:47:17Z,42.805,6.029,13.3039,4.60119,2470.74,2023-4-21T08:50:17Z
2023-04-21T06:50:20Z,42.805,6.029,13.3031,4.60110,2470.787,2023-4-21T08:53:20Z
2023-04-21T06:53:23Z,42.805,6.029,13.3035,4.60107,2470.777,2023-4-21T08:56:23Z
2023-04-21T06:56:26Z,42.805,6.029,13.3039,4.60119,2470.74,2023-4-21T08:59:26Z
2023-04-21T06:59:29Z,42.805,6.029,13.3041,4.60140,2470.787,2023-4-21T09:02:29Z
2023-04-21T07:02:32Z,42.805,6.029,13.3039,4.60142,2470.824,2023-4-21T09:05:32Z
2023-04-21T07:05:35Z,42.805,6.029,13.3045,4.60144,2470.8,2023-4-21T09:08:35Z
2023-04-21T07:08:38Z,42.805,6.029,13.3037,4.60135,2470.74,2023-4-21T09:11:38Z
2023-04-21T07:11:42Z,42.805,6.029,13.3045,4.60123,2470.787,2023-4-21T09:14:42Z
2023-04-21T07:14:45Z,42.805,6.029,13.3029,4.60129,2470.787,2023-4-21T09:17:45Z
2023-04-21T07:17:48Z,42.805,6.029,13.3031,4.60104,2470.777,2023-4-21T09:20:48Z
2023-04-21T07:20:51Z,42.805,6.029,13.3032,4.60103,2470.777,2023-4-21T09:23:51Z
2023-04-21T07:23:54Z,42.805,6.029,13.3036,4.60110,2470.763,2023-4-21T09:26:54Z
2023-04-21T07:26:57Z,42.805,6.029,13.3027,4.60102,2470.8,2023-4-21T09:29:57Z
2023-04-21T07:30:00Z,42.805,6.029,13.3031,4.60104,2470.787,2023-4-21T09:33:00Z
2023-04-21T07:33:03Z,42.805,6.029,13.3031,4.60116,2470.787,2023-4-21T09:36:03Z
2023-04-21T07:36:06Z,42.805,6.029,13.3029,4.60095,2470.787,2023-4-21T09:39:06Z
2023-04-21T07:39:09Z,42.805,6.029,13.3026,4.60094,2470.814,2023-4-21T09:42:09Z
2023-04-21T07:42:12Z,42.805,6.029,13.3036,4.60104,2470.824,2023-4-21T09:45:12Z
2023-04-21T07:45:15Z,42.805,6.029,13.3032,4.60115,2470.777,2023-4-21T09:48:15Z
2023-04-21T07:48:18Z,42.805,6.029,13.3024,4.60094,2470.787,2023-4-21T09:51:18Z
2023-04-21T07:51:22Z,42.805,6.029,13.3029,4.60103,2470.763,2023-4-21T09:54:22Z
2023-04-21T07:54:25Z,42.805,6.029,13.3034,4.60110,2470.8,2023-4-21T09:57:25Z
2023-04-21T07:57:28Z,42.805,6.029,13.3035,4.60114,2470.81,2023-4-21T10:00:28Z
2023-04-21T08:00:31Z,42.805,6.029,13.3026,4.60097,2470.8,2023-4-21T10:03:31Z
2023-04-21T08:03:34Z,42.805,6.029,13.3029,4.60109,2470.763,2023-4-21T10:06:34Z
2023-04-21T08:06:37Z,42.805,6.029,13.3031,4.60126,2470.777,2023-4-21T10:09:37Z
2023-04-21T08:09:40Z,42.805,6.029,13.3026,4.60104,2470.74,2023-4-21T10:12:40Z
2023-04-21T08:12:43Z,42.805,6.029,13.3034,4.60129,2470.763,2023-4-21T10:15:43Z
2023-04-21T08:15:46Z,42.805,6.029,13.3035,4.60117,2470.824,2023-4-21T10:18:46Z
2023-04-21T08:18:49Z,42.805,6.029,13.3030,4.60113,2470.8,2023-4-21T10:21:49Z
2023-04-21T08:21:52Z,42.805,6.029,13.3029,4.60102,2470.763,2023-4-21T10:24:52Z
2023-04-21T08:24:55Z,42.805,6.029,13.3029,4.60104,2470.763,2023-4-21T10:27:56Z
2023-04-21T08:27:59Z,42.805,6.029,13.3030,4.60112,2470.8,2023-4-21T10:30:59Z
2023-04-21T08:31:02Z,42.805,6.029,13.3026,4.60109,2470.787,2023-4-21T10:34:02Z
2023-04-21T08:34:05Z,42.805,6.029,13.3035,4.60102,2470.763,2023-4-21T10:37:05Z
2023-04-21T08:37:08Z,42.805,6.029,13.3035,4.60126,2470.777,2023-4-21T10:40:08Z
2023-04-21T08:40:11Z,42.805,6.029,13.3031,4.60091,2470.763,2023-4-21T10:43:11Z
2023-04-21T08:43:14Z,42.805,6.029,13.3033,4.60101,2470.777,2023-4-21T10:46:14Z
2023-04-21T08:46:17Z,42.805,6.029,13.3021,4.60092,2470.763,2023-4-21T10:49:17Z
2023-04-21T08:49:20Z,42.805,6.029,13.3026,4.60092,2470.787,2023-4-21T10:52:20Z
2023-04-21T08:52:23Z,42.805,6.029,13.3030,4.60120,2470.787,2023-4-21T10:55:23Z
2023-04-21T08:55:26Z,42.805,6.029,13.3045,4.60123,2470.763,2023-4-21T10:58:26Z
2023-04-21T08:58:29Z,42.805,6.029,13.3037,4.60117,2470.763,2023-4-21T11:01:29Z
2023-04-21T09:01:32Z,42.805,6.029,13.3035,4.60119,2470.754,2023-4-21T11:04:33Z
2023-04-21T09:04:36Z,42.805,6.029,13.3029,4.60109,2470.777,2023-4-21T11:07:36Z
2023-04-21T09:07:39Z,42.805,6.029,13.3041,4.60139,2470.777,2023-4-21T11:10:39Z
2023-04-21T09:10:42Z,42.805,6.029,13.3036,4.60112,2470.787,2023-4-21T11:13:42Z
2023-04-21T09:13:45Z,42.805,6.029,13.3032,4.60114,2470.754,2023-4-21T11:16:45Z
2023-04-21T09:16:48Z,42.805,6.029,13.3021,4.60098,2470.777,2023-4-21T11:19:48Z
2023-04-21T09:19:51Z,42.805,6.029,13.3025,4.60091,2470.787,2023-4-21T11:22:51Z
2023-04-21T09:22:54Z,42.805,6.029,13.3026,4.60096,2470.74,2023-4-21T11:25:54Z
2023-04-21T09:25:57Z,42.805,6.029,13.3031,4.60102,2470.74,2023-4-21T11:28:57Z
2023-04-21T09:29:00Z,42.805,6.029,13.3031,4.60110,2470.763,2023-4-21T11:32:00Z
2023-04-21T09:32:03Z,42.805,6.029,13.3021,4.60104,2470.74,2023-4-21T11:35:03Z
2023-04-21T09:35:06Z,42.805,6.029,13.3028,4.60097,2470.717,2023-4-21T11:38:06Z
2023-04-21T09:38:09Z,42.805,6.029,13.3031,4.60090,2470.74,2023-4-21T11:41:10Z
2023-04-21T09:41:13Z,42.805,6.029,13.3031,4.60097,2470.754,2023-4-21T11:44:13Z
2023-04-21T09:44:16Z,42.805,6.029,13.3031,4.60107,2470.74,2023-4-21T11:47:16Z
2023-04-21T09:47:19Z,42.805,6.029,13.3030,4.60114,2470.73,2023-4-21T11:50:19Z
2023-04-21T09:50:22Z,42.805,6.029,13.3030,4.60124,2470.73,2023-4-21T11:53:22Z
2023-04-21T09:53:25Z,42.805,6.029,13.3028,4.60114,2470.717,2023-4-21T11:56:25Z
2023-04-21T09:56:28Z,42.805,6.029,13.3037,4.60104,2470.717,2023-4-21T11:59:28Z
2023-04-21T09:59:31Z,42.805,6.029,13.3034,4.60109,2470.74,2023-4-21T12:02:31Z
2023-04-21T10:02:34Z,42.805,6.029,13.3031,4.60125,2470.717,2023-4-21T12:05:34Z
2023-04-21T10:05:37Z,42.805,6.029,13.3034,4.60095,2470.74,2023-4-21T12:08:37Z
2023-04-21T10:08:40Z,42.805,6.029,13.3036,4.60108,2470.717,2023-4-21T12:11:40Z
2023-04-21T10:11:43Z,42.805,6.029,13.3043,4.60119,2470.754,2023-4-21T12:14:44Z
2023-04-21T10:14:46Z,42.805,6.029,13.3039,4.60114,2470.717,2023-4-21T12:17:47Z
2023-04-21T10:17:50Z,42.805,6.029,13.3037,4.60131,2470.73,2023-4-21T12:20:50Z
2023-04-21T10:20:53Z,42.805,6.029,13.3031,4.60098,2470.717,2023-4-21T12:23:53Z
2023-04-21T10:23:56Z,42.805,6.029,13.3026,4.60104,2470.717,2023-4-21T12:26:56Z
2023-04-21T10:26:59Z,42.805,6.029,13.3029,4.60092,2470.707,2023-4-21T12:29:59Z
2023-04-21T10:30:02Z,42.805,6.029,13.3026,4.60110,2470.707,2023-4-21T12:33:02Z
2023-04-21T10:33:05Z,42.805,6.029,13.3039,4.60095,2470.693,2023-4-21T12:36:05Z
2023-04-21T10:36:08Z,42.805,6.029,13.3039,4.60106,2470.693,2023-4-21T12:39:08Z
2023-04-21T10:39:11Z,42.805,6.029,13.3040,4.60119,2470.73,2023-4-21T12:42:11Z
2023-04-21T10:42:14Z,42.805,6.029,13.3044,4.60125,2470.754,2023-4-21T12:45:14Z
2023-04-21T10:45:17Z,42.805,6.029,13.3030,4.60140,2470.707,2023-4-21T12:48:17Z
2023-04-21T10:48:20Z,42.805,6.029,13.3028,4.60104,2470.707,2023-4-21T12:51:21Z
2023-04-21T10:51:23Z,42.805,6.029,13.3026,4.60096,2470.693,2023-4-21T12:54:24Z
2023-04-21T10:54:27Z,42.805,6.029,13.3028,4.60092,2470.717,2023-4-21T12:57:27Z
2023-04-21T10:57:30Z,42.805,6.029,13.3033,4.60107,2470.693,2023-4-21T13:00:30Z
2023-04-21T11:00:33Z,42.805,6.029,13.3032,4.60100,2470.67,2023-4-21T13:03:33Z
2023-04-21T11:03:36Z,42.805,6.029,13.3034,4.60107,2470.693,2023-4-21T13:06:36Z
2023-04-21T11:06:39Z,42.805,6.029,13.3025,4.60096,2470.684,2023-4-21T13:09:39Z
2023-04-21T11:09:42Z,42.805,6.029,13.3032,4.60113,2470.67,2023-4-21T13:12:42Z
2023-04-21T11:12:45Z,42.805,6.029,13.3027,4.60111,2470.707,2023-4-21T13:15:45Z
2023-04-21T11:15:48Z,42.805,6.029,13.3026,4.60101,2470.67,2023-4-21T13:18:48Z
2023-04-21T11:18:51Z,42.805,6.029,13.3024,4.60099,2470.707,2023-4-21T13:21:51Z
2023-04-21T11:21:54Z,42.805,6.029,13.3026,4.60102,2470.707,2023-4-21T13:24:54Z
2023-04-21T11:24:57Z,42.805,6.029,13.3030,4.60102,2470.67,2023-4-21T13:27:58Z
2023-04-21T11:28:00Z,42.805,6.029,13.3029,4.60129,2470.684,2023-4-21T13:31:01Z
2023-04-21T11:31:04Z,42.805,6.029,13.3031,4.60101,2470.684,2023-4-21T13:34:04Z
2023-04-21T11:34:07Z,42.805,6.029,13.3033,4.60103,2470.684,2023-4-21T13:37:07Z
2023-04-21T11:37:10Z,42.805,6.029,13.3037,4.60112,2470.646,2023-4-21T13:40:10Z
2023-04-21T11:40:13Z,42.805,6.029,13.3034,4.60117,2470.67,2023-4-21T13:43:13Z
2023-04-21T11:43:16Z,42.805,6.029,13.3037,4.60101,2470.646,2023-4-21T13:46:16Z
2023-04-21T11:46:19Z,42.805,6.029,13.3033,4.60108,2470.637,2023-4-21T13:49:19Z
2023-04-21T11:49:22Z,42.805,6.029,13.3026,4.60105,2470.661,2023-4-21T13:52:22Z
2023-04-21T11:52:25Z,42.805,6.029,13.3030,4.60096,2470.637,2023-4-21T13:55:25Z
2023-04-21T11:55:28Z,42.805,6.029,13.3031,4.60104,2470.661,2023-4-21T13:58:28Z
2023-04-21T11:58:31Z,42.805,6.029,13.3029,4.60109,2470.637,2023-4-21T14:01:31Z
2023-04-21T12:01:34Z,42.805,6.029,13.3029,4.60116,2470.67,2023-4-21T14:04:35Z
2023-04-21T12:04:38Z,42.805,6.029,13.3029,4.60126,2470.646,2023-4-21T14:07:38Z
2023-04-21T12:07:41Z,42.805,6.029,13.3026,4.60109,2470.661,2023-4-21T14:10:41Z
2023-04-21T12:10:44Z,42.805,6.029,13.3028,4.60127,2470.637,2023-4-21T14:13:44Z
2023-04-21T12:13:47Z,42.805,6.029,13.3029,4.60110,2470.646,2023-4-21T14:16:47Z
2023-04-21T12:16:50Z,42.805,6.029,13.3031,4.60107,2470.6,2023-4-21T14:19:50Z
2023-04-21T12:19:53Z,42.805,6.029,13.3028,4.60100,2470.637,2023-4-21T14:22:53Z
2023-04-21T12:22:56Z,42.805,6.029,13.3030,4.60104,2470.637,2023-4-21T14:25:56Z
2023-04-21T12:25:59Z,42.805,6.029,13.3031,4.60129,2470.6,2023-4-21T14:28:59Z
2023-04-21T12:29:02Z,42.805,6.029,13.3034,4.60115,2470.614,2023-4-21T14:32:02Z
2023-04-21T12:32:07Z,42.805,6.029,13.3031,4.60104,2470.637,2023-4-21T14:35:07Z
2023-04-21T12:35:10Z,42.805,6.029,13.3031,4.60115,2470.624,2023-4-21T14:38:10Z
2023-04-21T12:38:13Z,42.805,6.029,13.3026,4.60111,2470.591,2023-4-21T14:41:13Z
2023-04-21T12:41:16Z,42.805,6.029,13.3035,4.60110,2470.637,2023-4-21T14:44:16Z
2023-04-21T12:44:19Z,42.805,6.029,13.3034,4.60104,2470.6,2023-4-21T14:47:19Z
2023-04-21T12:47:22Z,42.805,6.029,13.3025,4.60123,2470.624,2023-4-21T14:50:22Z
2023-04-21T12:50:25Z,42.805,6.029,13.3030,4.60097,2470.6,2023-4-21T14:53:25Z
2023-04-21T12:53:28Z,42.805,6.029,13.3032,4.60099,2470.637,2023-4-21T14:56:29Z
2023-04-21T12:56:31Z,42.805,6.029,13.3035,4.60129,2470.6,2023-4-21T14:59:32Z
2023-04-21T12:59:35Z,42.805,6.029,13.3031,4.60097,2470.577,2023-4-21T15:02:35Z
2023-04-21T13:02:38Z,42.805,6.029,13.3041,4.60106,2470.614,2023-4-21T15:05:38Z
2023-04-21T13:05:41Z,42.805,6.029,13.3026,4.60094,2470.577,2023-4-21T15:08:41Z
2023-04-21T13:08:44Z,42.805,6.029,13.3029,4.60094,2470.591,2023-4-21T15:11:44Z
2023-04-21T13:11:47Z,42.805,6.029,13.3024,4.60099,2470.577,2023-4-21T15:14:47Z
2023-04-21T13:14:50Z,42.805,6.029,13.3029,4.60106,2470.614,2023-4-21T15:17:50Z
2023-04-21T13:17:53Z,42.805,6.029,13.3024,4.60105,2470.591,2023-4-21T15:20:53Z
2023-04-21T13:20:56Z,42.805,6.029,13.3035,4.60117,2470.577,2023-4-21T15:23:56Z
2023-04-21T13:23:59Z,42.805,6.029,13.3031,4.60116,2470.591,2023-4-21T15:26:59Z
2023-04-21T13:27:02Z,42.805,6.029,13.3031,4.60102,2470.6,2023-4-21T15:30:03Z
2023-04-21T13:30:05Z,42.805,6.029,13.3039,4.60112,2470.577,2023-4-21T15:33:06Z
2023-04-21T13:33:09Z,42.805,6.029,13.3031,4.60120,2470.6,2023-4-21T15:36:09Z
2023-04-21T13:36:12Z,42.805,6.029,13.3029,4.60104,2470.577,2023-4-21T15:39:12Z
2023-04-21T13:39:15Z,42.805,6.029,13.3034,4.60112,2470.553,2023-4-21T15:42:15Z
2023-04-21T13:42:18Z,42.805,6.029,13.3029,4.60118,2470.553,2023-4-21T15:45:18Z
2023-04-21T13:45:21Z,42.805,6.029,13.3030,4.60099,2470.567,2023-4-21T15:48:21Z
2023-04-21T13:48:24Z,42.805,6.029,13.3034,4.60108,2470.553,2023-4-21T15:51:24Z
2023-04-21T13:51:27Z,42.805,6.029,13.3028,4.60105,2470.544,2023-4-21T15:54:27Z
2023-04-21T13:54:30Z,42.805,6.029,13.3031,4.60117,2470.53,2023-4-21T15:57:30Z
2023-04-21T13:57:33Z,42.805,6.029,13.3038,4.60114,2470.624,2023-4-21T16:00:33Z
2023-04-21T14:00:36Z,42.805,6.029,13.3036,4.60122,2470.577,2023-4-21T16:03:36Z
2023-04-21T14:03:39Z,42.805,6.029,13.3026,4.60122,2470.577,2023-4-21T16:06:40Z
2023-04-21T14:06:42Z,42.805,6.029,13.3029,4.60110,2470.577,2023-4-21T16:09:43Z
2023-04-21T14:09:46Z,42.805,6.029,13.3026,4.60155,2470.567,2023-4-21T16:12:46Z
2023-04-21T14:12:49Z,42.805,6.029,13.3036,4.60133,2470.577,2023-4-21T16:15:49Z
2023-04-21T14:15:52Z,42.805,6.029,13.3040,4.60121,2470.577,2023-4-21T16:18:52Z
2023-04-21T14:18:55Z,42.805,6.029,13.3032,4.60111,2470.591,2023-4-21T16:21:55Z
2023-04-21T14:21:58Z,42.805,6.029,13.3029,4.60112,2470.577,2023-4-21T16:24:58Z
2023-04-21T14:25:01Z,42.805,6.029,13.3030,4.60117,2470.567,2023-4-21T16:28:01Z
2023-04-21T14:28:04Z,42.805,6.029,13.3031,4.60109,2470.53,2023-4-21T16:31:04Z
2023-04-21T14:31:07Z,42.805,6.029,13.3038,4.60133,2470.567,2023-4-21T16:34:07Z
2023-04-21T14:34:10Z,42.805,6.029,13.3026,4.60113,2470.553,2023-4-21T16:37:10Z
2023-04-21T14:37:13Z,42.805,6.029,13.3029,4.60127,2470.567,2023-4-21T16:40:14Z
2023-04-21T14:40:16Z,42.805,6.029,13.3029,4.60114,2470.567,2023-4-21T16:43:17Z
2023-04-21T14:43:20Z,42.805,6.029,13.3027,4.60108,2470.591,2023-4-21T16:46:20Z
2023-04-21T14:46:23Z,42.805,6.029,13.3034,4.60135,2470.553,2023-4-21T16:49:23Z
2023-04-21T14:49:26Z,42.805,6.029,13.3034,4.60140,2470.577,2023-4-21T16:52:26Z
2023-04-21T14:52:29Z,42.805,6.029,13.3031,4.60097,2470.577,2023-4-21T16:55:29Z
2023-04-21T14:55:32Z,42.805,6.029,13.3028,4.60111,2470.577,2023-4-21T16:58:32Z
2023-04-21T14:58:35Z,42.805,6.029,13.3028,4.60100,2470.553,2023-4-21T17:01:35Z
2023-04-21T15:01:38Z,42.805,6.029,13.3031,4.60121,2470.553,2023-4-21T17:04:38Z
2023-04-21T15:04:41Z,42.805,6.029,13.3038,4.60137,2470.591,2023-4-21T17:07:41Z
2023-04-21T15:07:44Z,42.805,6.029,13.3030,4.60125,2470.567,2023-4-21T17:10:44Z
2023-04-21T15:10:47Z,42.805,6.029,13.3029,4.60121,2470.577,2023-4-21T17:13:48Z
2023-04-21T15:13:50Z,42.805,6.029,13.3050,4.60137,2470.577,2023-4-21T17:16:51Z